Greentree Foundation NY US WEATHERSTEM current weather conditions

sailwx.info

Air temperature 20.8° C
Dewpoint 19.5° C

Last reported at 2020-Jul-15 07:00 UTC.
Time now 2020-Jul-15 07:53 UTC

Location: N 40°47' W 073°42'.
View on Google Maps.

See reports from other nearby stations

  
Tides and Currents Weather Stations Pressure Air Temp Water Temp Dewpoint Dewpoint Depression Visibility Wind Speed Wind Dir Waves Ship Positions
date/time (UTC)wind fromknots sea level pressurealtimeterstation pressurevisibilityair tempwater tempwave heightnotes
2020-Jul-15 07:00 20.8
2020-Jul-15 06:50 20.9
2020-Jul-15 06:40 20.9
2020-Jul-15 06:30 146 1 gusting 2 20.9
2020-Jul-15 06:20 20.9
2020-Jul-15 06:10 20.9
2020-Jul-15 06:00 20.9
2020-Jul-15 05:50 21.0
2020-Jul-15 05:40 21.1
2020-Jul-15 05:20 21.4
2020-Jul-15 05:10 21.4
2020-Jul-15 05:00 21.6
2020-Jul-15 04:50 21.6
2020-Jul-15 04:40 21.6
2020-Jul-15 04:30 21.7
2020-Jul-15 04:20 147 0 gusting 2 21.6
2020-Jul-15 04:10 21.8
2020-Jul-15 04:00 22.1
2020-Jul-15 03:50 22.1
2020-Jul-15 03:40 22.3
2020-Jul-15 03:30 22.6
2020-Jul-15 03:20 076 1 gusting 3 22.8
2020-Jul-15 03:10 23.1
2020-Jul-15 03:00 005 0 gusting 4 23.3
2020-Jul-15 02:50 23.2
2020-Jul-15 02:40 095 0 gusting 0 23.1
2020-Jul-15 02:30 23.2
2020-Jul-15 02:20 095 0 gusting 1 23.1
2020-Jul-15 02:10 22.9
2020-Jul-15 02:00 23.4
2020-Jul-15 01:50 095 0 gusting 1 23.4
2020-Jul-15 01:40 095 1 gusting 4 23.3
2020-Jul-15 01:30 126 0 gusting 7 23.4
2020-Jul-15 01:20 036 4 gusting 9 23.7
2020-Jul-15 01:10 076 4 gusting 12 24.1
2020-Jul-15 01:00 355 1 gusting 11 24.4
2020-Jul-15 00:50 164 1 gusting 13 25.4
2020-Jul-15 00:40 088 1 gusting 9 26.5
2020-Jul-15 00:30 335 0 gusting 2 27.0
2020-Jul-15 00:20 335 0 gusting 3 27.1
2020-Jul-15 00:10 335 0 gusting 3 27.3
2020-Jul-15 00:00 330 0 gusting 2 27.2
2020-Jul-14 23:50 326 0 gusting 1 26.8
2020-Jul-14 23:40 27.5
2020-Jul-14 23:30 326 0 gusting 3 27.9
2020-Jul-14 23:10 348 1 gusting 4 28.4
2020-Jul-14 23:00 28.5
2020-Jul-14 22:40 302 1 gusting 4 28.6
2020-Jul-14 22:30 333 2 gusting 3 28.6
2020-Jul-14 22:10 009 1 gusting 4 28.7
2020-Jul-14 22:00 347 1 gusting 7 28.5
2020-Jul-14 21:40 283 6 gusting 7 28.8
2020-Jul-14 21:30 309 2 gusting 5 28.7
2020-Jul-14 21:10 309 2 gusting 6 28.6
2020-Jul-14 21:00 013 6 gusting 6 28.7
2020-Jul-14 20:50 023 3 gusting 8 28.6
2020-Jul-14 20:40 019 2 gusting 9 28.4
2020-Jul-14 20:30 324 4 gusting 8 28.6
2020-Jul-14 20:10 337 2 gusting 10 28.3
2020-Jul-14 20:00 329 1 gusting 7 28.2
2020-Jul-14 19:50 315 4 gusting 7 28.4
2020-Jul-14 19:40 298 0 gusting 7 28.2
2020-Jul-14 19:30 333 6 gusting 10 28.2
2020-Jul-14 19:10 320 9 gusting 9 28.2
2020-Jul-14 19:00 355 2 gusting 11 27.8
2020-Jul-14 18:50 304 6 gusting 11 27.4
2020-Jul-14 18:40 319 3 gusting 10 27.8
2020-Jul-14 18:30 333 1 gusting 7 27.5
2020-Jul-14 18:10 015 6 gusting 10 27.6
2020-Jul-14 18:00 330 5 gusting 10 26.9
2020-Jul-14 17:50 039 2 gusting 8 27.5
2020-Jul-14 17:40 019 7 gusting 11 27.4
2020-Jul-14 17:30 317 3 gusting 9 27.1
2020-Jul-14 15:00
2020-Jul-14 14:00
2020-Jul-14 13:00 342 23.4
2020-Jul-14 12:00
2020-Jul-14 11:00
2020-Jul-14 10:00
2020-Jul-14 09:00 302 0 20.9
2020-Jul-14 08:00 239 0 gusting 1 21.3
2020-Jul-14 07:50 21.2
2020-Jul-14 07:40 20.9
2020-Jul-14 07:30 21.4
2020-Jul-14 07:10 21.7
2020-Jul-14 07:00 22.0
2020-Jul-14 06:50
2020-Jul-14 06:40
2020-Jul-14 06:30
2020-Jul-14 06:10
2020-Jul-14 06:00
2020-Jul-14 05:50
2020-Jul-14 05:40
2020-Jul-14 05:30
2020-Jul-14 05:10 317 1 24.1
2020-Jul-14 05:00 325 2 24.1
2020-Jul-14 04:50 24.4
2020-Jul-14 04:40 313 0 24.9
2020-Jul-14 04:30 296 1 25.1
2020-Jul-14 04:10 301 4 gusting 9 25.3
2020-Jul-14 04:00 300 9 gusting 9 25.5
2020-Jul-14 03:50 289 2 gusting 8 25.6
2020-Jul-14 03:40 331 6 gusting 12 25.4
2020-Jul-14 03:30 331 2 gusting 8 25.3
2020-Jul-14 03:10 25.3
2020-Jul-14 03:00 284 1 gusting 3 25.3
2020-Jul-14 02:50 288 0 gusting 4 25.3
2020-Jul-14 02:40 280 0 gusting 2 25.3
2020-Jul-14 02:30 280 0 gusting 1 25.1
2020-Jul-14 02:10 24.7
2020-Jul-14 02:00 290 0 gusting 2 24.7
2020-Jul-14 01:50 24.6
2020-Jul-14 01:40 25.0
2020-Jul-14 01:30 25.1
2020-Jul-14 01:10 25.8
2020-Jul-14 01:00 25.9
2020-Jul-14 00:50 25.9
2020-Jul-14 00:40 26.1
2020-Jul-14 00:30 26.0
2020-Jul-14 00:10 290 26.6
2020-Jul-14 00:00 27.2
2020-Jul-13 23:50 290 3 gusting 4 27.7
2020-Jul-13 23:40 271 0 gusting 2 27.9
2020-Jul-13 23:30 269 1 gusting 4 27.7
2020-Jul-13 23:10 335 1 gusting 6 28.3
2020-Jul-13 23:00 298 2 gusting 6 28.3
2020-Jul-13 22:50 319 1 gusting 9 28.5
2020-Jul-13 22:40 355 6 gusting 8 29.1
2020-Jul-13 22:30 309 6 gusting 12 29.2
2020-Jul-13 22:20 284 6 gusting 11 29.2
2020-Jul-13 22:10 323 9 gusting 10 29.3
2020-Jul-13 22:00 289 3 gusting 8 29.4
2020-Jul-13 21:30 268 5 gusting 11 29.4
2020-Jul-13 21:20 286 7 gusting 13 29.6
2020-Jul-13 21:10 273 1 gusting 12 29.7
2020-Jul-13 21:00 292 3 gusting 11 29.8
2020-Jul-13 20:40 265 2 gusting 8 28.9
2020-Jul-13 20:30 260 1 gusting 9 29.4
2020-Jul-13 20:20 292 0 gusting 7 29.1
2020-Jul-13 20:10 302 6 gusting 9 29.4
2020-Jul-13 20:00 346 0 gusting 6 29.1
2020-Jul-13 19:30 324 1 gusting 9 30.1
2020-Jul-13 19:20 249 2 gusting 8 29.7
2020-Jul-13 19:10 334 4 gusting 10 29.8
2020-Jul-13 19:00 255 2 gusting 7 29.9
2020-Jul-13 18:40 290 6 gusting 8 29.7
2020-Jul-13 18:30 281 6 gusting 8 29.5
2020-Jul-13 18:20 303 4 gusting 7 29.6
2020-Jul-13 18:10 265 2 gusting 8 29.4
2020-Jul-13 18:00 256 4 gusting 8 29.3
2020-Jul-13 17:40 277 0 gusting 8 29.0
2020-Jul-13 17:30 317 4 gusting 7 28.9
2020-Jul-13 17:20 331 7 gusting 11 28.8
2020-Jul-13 17:10 305 4 gusting 7 28.6
2020-Jul-13 17:00 292 1 gusting 7 28.7
2020-Jul-13 16:40 309 4 gusting 7 28.3
2020-Jul-13 16:30 216 4 gusting 7 28.2
2020-Jul-13 16:20 325 1 gusting 8 27.9
2020-Jul-13 16:10 298 1 gusting 7 27.7
2020-Jul-13 16:00 291 7 gusting 9 27.9
2020-Jul-13 15:40 273 0 gusting 8 28.0
2020-Jul-13 15:30 019 1 gusting 7 27.7
2020-Jul-13 15:20 322 0 gusting 5 27.3
2020-Jul-13 15:10 300 6 gusting 6 27.4
2020-Jul-13 15:00 27.3
2020-Jul-13 14:40 294 3 gusting 4 27.1
2020-Jul-13 14:30 328 3 gusting 5 26.4
2020-Jul-13 14:20 315 3 gusting 6 25.9
2020-Jul-13 14:10 311 2 gusting 5 25.9
2020-Jul-13 14:00 25.9
2020-Jul-13 13:40 323 2 gusting 5 25.7
2020-Jul-13 13:30 25.4
2020-Jul-13 13:20 315 2 gusting 4 25.4
2020-Jul-13 13:10 275 2 gusting 6 25.1
2020-Jul-13 13:00 282 3 gusting 6 25.0
2020-Jul-13 12:40 273 0 gusting 4 24.8
2020-Jul-13 12:30 240 1 gusting 5 24.6
2020-Jul-13 12:20 263 0 gusting 3 24.3
2020-Jul-13 12:10 230 0 gusting 2 24.2
2020-Jul-13 12:00 230 0 gusting 2 23.9
2020-Jul-13 11:40 23.3
2020-Jul-13 11:30 22.7
2020-Jul-13 11:20 22.3
2020-Jul-13 11:10 22.1
2020-Jul-13 11:00 21.7
2020-Jul-13 10:40 21.2
2020-Jul-13 10:30 21.2
2020-Jul-13 10:20 21.0
2020-Jul-13 10:10 20.9
2020-Jul-13 10:00 20.9
2020-Jul-13 09:40 21.0
2020-Jul-13 09:30 21.1
2020-Jul-13 09:20 21.2
2020-Jul-13 09:10 21.2
2020-Jul-13 09:00 21.2
2020-Jul-13 08:40 21.1
2020-Jul-13 08:30 21.1
2020-Jul-13 08:20 20.9
2020-Jul-13 08:10 21.1
2020-Jul-13 08:00 232 0 gusting 1 21.1
2020-Jul-13 07:40 21.3
2020-Jul-13 07:30 21.3
2020-Jul-13 07:20 259 1 gusting 1 21.6
2020-Jul-13 07:10 21.6
2020-Jul-13 07:00 21.6